Regional Weather Roundup
Issued by NWS Charleston, SC

Current Version | Previous Version | Graphics & Text | Print | Product List | Glossary On
Versions: 1 2 3 4 5 6 7 8 9 10 11 12 13 14 15 16 17 18 19 20 21 22 23 24 25 26 27 28 29 30 31 32 33 34 35 36 37 38 39 40 41 42 43 44 45 46 47 48 49 50
000
ASUS42 KCHS 271513
RWRCHS

REGIONAL WEATHER ROUNDUP
NATIONAL WEATHER SERVICE CHARLESTON SC
1100 AM EDT TUE SEP 27 2016

NOTE: "FAIR" INDICATES FEW OR NO CLOUDS BELOW 12,000 FEET WITH NO
SIGNIFICANT WEATHER AND/OR OBSTRUCTIONS TO VISIBILITY.

NOT ALL STATIONS ARE QUALITY CONTROLLED. USE DATA WITH CAUTION...
ESPECIALLY DEWPOINT OBSERVATIONS.

SCZ027-030-031-034>040-042>050-271600-
...SOUTHEAST SOUTH CAROLINA...

CITY           SKY/WX    TMP DP  RH WIND       PRES   REMARKS
N CHARLESTON   PTSUNNY   80  72  76 VRB3      29.96S
WATERFRONT PRK   N/A     77  74  91 VRB3      29.94R
MOUNT PLEASANT FAIR      81  73  78 CALM      29.95F
JOHNS ISLAND   PTSUNNY   81  75  83 NE5       29.95F
PINOPOLIS        N/A     75  73  94 CALM      29.91R
MONCKS CORNER  FAIR      77  70  78 CALM      29.97S
SUMMERVILLE    FAIR      79  77  94 CALM      29.98S
BEAUFORT MCAS  MOSUNNY   81  72  74 N6        29.96F
BEAUFORT ARPT  FAIR      79  72  78 N6        29.96S
HILTON HEAD IS MOSUNNY   82  73  74 N7        29.97R
WALTERBORO     PTSUNNY   79  77  94 NE3       29.98F
ALLENDALE      CLOUDY    77  72  83 CALM      29.99R

...SOUTHERN MIDLANDS AND PEE DEE...

CITY           SKY/WX    TMP DP  RH WIND       PRES   REMARKS
GEORGETOWN     FAIR      79  70  73 CALM      29.97F
KINGSTREE      FAIR      77  70  78 CALM      29.98S
ORANGEBURG     SUNNY     80  71  74 N5        29.98F
BARNWELL       NOT AVBL
AIKEN          CLOUDY    75  70  83 CALM      30.03S
MANNING        CLOUDY    73  70  88 CALM      29.99S
COLUMBIA       MOSUNNY   81  70  69 CALM      29.98S
SUMTER         PTSUNNY   77  70  80 CALM      29.96S
FLORENCE       CLOUDY    79  71  76 CALM      29.98S
MYRTLE BEACH   MOSUNNY   79  64  61 CALM      29.99
N MYRTLE BEACH CLOUDY    80  71  74 NE3       29.96S

$$

GAZ063-065-086>088-099>101-113>116-118-119-134>141-150-271600-
...SOUTHEAST GEORGIA...

CITY           SKY/WX    TMP DP  RH WIND       PRES   REMARKS
SAVANNAH ARPT  PTSUNNY   82  70  66 N6        29.97R
HUNTER AAF     PTSUNNY   78  77  99 N5        29.94S
FORT STEWART   PTSUNNY   78  71  77 VRB2      29.95S
STATESBORO     PTSUNNY   78  73  86 N5        29.99R
SYLVANIA       NOT AVBL
CLAXTON        FAIR      80  73  81 CALM      29.99R

...CSRA...CENTRAL AND FAR SOUTHEAST GEORGIA...

CITY           SKY/WX    TMP DP  RH WIND       PRES   REMARKS
THOMSON        MOSUNNY   81  72  74 CALM      30.04S
AUGUSTA-BUSH   CLOUDY    75  72  90 CALM      29.99R FOG
AUGUSTA-DANIEL SUNNY     79  68  69 CALM      30.00R
SWAINSBORO     FAIR      79  70  73 NE3       30.00S
VIDALIA        MOSUNNY   79  75  89 NE5       30.00R
EASTMAN        FAIR      78  71  80 CALM      30.02S
HAZLEHURST     FAIR      78  74  87 S5        29.98F
ALMA           SUNNY     80  71  74 N6        29.98S
WAYCROSS       MOSUNNY   84  74  72 NE6       29.98R HX  91
JESUP          FAIR      81  75  83 NE8       29.98S
BAXLEY         PTSUNNY   79  77  94 NE5       29.98F
BRUNSWICK      MOSUNNY   81  73  78 N3        29.97S
SAINT SIMONS   MOSUNNY   81  70  69 N7        29.95S

$$

SCZ027-028-034-036>038-045-046-048>050-GAZ119-141-271600-
...LAKE AND SUPPLEMENTAL COASTAL OBSERVATIONS...

STATION/POSITION TIME  TEMP    WIND        PRES    WAVE   SWELL
                       AIR SEA DIR/SP/G            HT/PER HT/PER/DIR
                 (UTC) (F)     (DEG/KT/KT) (MB)    (FT/S) (FT/S/D)
WINYAH BAY       NOT AVBL
LAKE MURRAY      1420   77      CALM  /  3 1014.9R
ACE BASIN NERRS  1345   76      10/  1     1015.0
FORT PULASKI     1448   77 81  360/  5/  7 1014.9R
SAPELO ISLAND    1400   79      10/  8     1014.0

$$

ANZ835-935-AMZ111-154-330-350-352-354-370-450-454-472-271600-
...C-MAN AND BUOY OBSERVATIONS...

STATION/POSITION TIME  TEMP    WIND        PRES    WAVE   SWELL
                       AIR SEA DIR/SP/G            HT/PER HT/PER/DIR
                 (UTC) (F)     (DEG/KT/KT) (MB)    (FT/S) (FT/S/D)
BUOY 41004       1450   77 82   40/  4/  6 1013.5F   3/ 8   3/ 80/ 8
BUOY 41008       1450   78 82   30/ 10/ 12 1013.7S   2/10   2/ 80/10
FOLLY BEACH CMAN 1400   76      50/  5/  6 1014.5R
CAPERS NEARSHORE 1408   77 81   90/  6/ 10 1014.3R
FRIPP NEARSHORE  1408   78 81   50/ 10/ 12 1014.4R


STATION/POSITION TIME  TEMP    WIND        PRES    WAVE   SWELL
                       AIR SEA DIR/SP/G            HT/PER HT/PER/DIR
                 (UTC) (F)     (DEG/KT/KT) (MB)    (FT/S) (FT/S/D)
5E ST. MARYS GA  1401      82                N/A     2/ 5
FRYING PAN BUOY  1450   80 82   10/  6/  8 1014.1R   4/ 7   3/130/ 7
BUOY 41025       1450   78 84  150/ 16/ 19 1015.1F   3/ 6   2/ 90/ 9
CAPE LOOKOUT NC  1400   77     140/ 13/ 15 1014.3S
BUOY 41002       1450   80 83  190/ 14/ 16 1013.9S   6/ 6   3/ 50/ 7
BUOY 41010       NOT AVBL
ST AUGUSTINE FL  1500   80 83  330/  7/  9 1015.1R


$$



USA.gov is the U.S. government's official web portal to all federal, state and local government web resources and services.